IW1QLH-13 Weather Reports


time (UTC)temp
C
wind
direction
speed
KPH
gust
KPH
rain 1hr
cm
rain 24hr
cm
rain mn
cm
humidity
%
barometer
mb
20260508015022 -17 3.2 4.8 0.00 0.00 0.00 1005.0
20260508013954 -17 3.2 6.4 0.00 0.00 0.00 1005.1
20260508012925 -17 3.2 4.8 0.00 0.00 0.00 1005.2
20260508011856 -17 1.6 4.8 0.00 0.00 0.00 1005.2
20260508010826 -17 1.6 4.8 0.00 0.00 0.00 1005.3
20260508005756 -17 3.2 6.4 0.00 0.00 0.00 1005.4
20260508004728 -17 1.6 4.8 0.00 0.00 0.00 1005.5
20260508003658 -17 0.0 3.2 0.00 0.00 0.00 1005.8
20260508002629 -17 0.0 1.6 0.00 0.00 0.00 1005.8
20260508001251 -17 0.0 0.0 0.00 0.00 0.00 1006.0
20260508000222 -17 0.0 0.0 0.00 0.00 0.00 1006.0
20260507234842 -17 0.0 0.0 0.00 0.00 0.00 1006.3
20260507233709 -17 0.0 1.6 0.00 0.00 0.00 1006.4
20260507232640 -17 0.0 0.0 0.00 0.00 0.00 1006.3
20260507231506 -17 0.0 0.0 0.00 0.00 0.00 1006.4
20260507225919 -17 0.0 1.6 0.00 0.00 0.00 1006.5
20260507224849 -17 0.0 0.0 0.00 0.00 0.00 1006.7
20260507222853 -17 0.0 1.6 0.00 0.00 0.00 1006.6
20260507221823 -17 0.0 0.0 0.00 0.00 0.00 1006.8
20260507220752 -17 0.0 1.6 0.00 0.00 0.00 1006.7
20260507215722 -17 0.0 1.6 0.00 0.00 0.00 1006.5
20260507214651 -17 0.0 0.0 0.00 0.00 0.00 1006.6
20260507213411 -17 0.0 1.6 0.00 0.00 0.00 1006.4
20260507212236 -17 0.0 0.0 0.00 0.00 0.00 1006.4
20260507210855 -17 0.0 0.0 0.00 0.00 0.00 1006.3
20260507205138 -17 0.0 1.6 0.00 0.00 0.00 1006.3
20260507204108 -17 0.0 1.6 0.00 0.00 0.00 1006.3
20260507203038 -17 0.0 0.0 0.00 0.00 0.00 1006.3
20260507201658 -17 0.0 0.0 0.00 0.00 0.00 1006.3
20260507200628 -17 0.0 0.0 0.00 0.00 0.00 1006.2
20260507195558 -17 0.0 0.0 0.00 0.00 0.00 1006.3
20260507193458 -17 0.0 0.0 0.00 0.00 0.00 1006.1
20260507192119 -17 0.0 0.0 0.00 0.00 0.00 1005.9
20260507191048 -17 0.0 1.6 0.00 0.00 0.00 1005.8
20260507190019 -17 0.0 1.6 0.00 0.00 0.00 1005.8
20260507184949 -17 0.0 1.6 0.00 0.00 0.00 1005.6
20260507183921 -17 1.6 1.6 0.00 0.00 0.00 1005.7
20260507182839 -17 1.6 1.6 0.00 0.00 0.00 1005.5
20260507181809 -17 0.0 1.6 0.00 0.00 0.00 1005.5
20260507180739 -17 0.0 1.6 0.00 0.00 0.00 1005.4
20260507175710 -17 0.0 1.6 0.00 0.00 0.00 1005.5
20260507174640 -17 0.0 1.6 0.00 0.00 0.00 1005.2
20260507173610 -17 0.0 1.6 0.00 0.00 0.00 1005.4
20260507172540 -17 0.0 4.8 0.00 0.00 0.00 1005.2
20260507171509 -17 0.0 6.4 0.00 0.00 0.00 1005.4
20260507170438 -17 1.6 6.4 0.00 0.00 0.00 1005.6
20260507165407 -17 0.0 9.7 0.00 0.00 0.00 1005.6
20260507164330 -17 1.6 4.8 0.00 0.00 0.00 1005.5
20260507163301 -17 3.2 4.8 0.00 0.00 0.00 1005.6
20260507162231 -17 1.6 6.4 0.00 0.00 0.00 1005.5
20260507161201 -17 4.8 9.7 0.00 0.00 0.00 1005.5
20260507160130 -17 3.2 11.3 0.00 0.00 0.00 1005.4
20260507155048 -17 4.8 8.0 0.00 0.00 0.00 1005.3
20260507154019 -17 3.2 9.7 0.00 0.00 0.00 1005.4
20260507152949 -17 0.0 11.3 0.00 0.00 0.00 1005.5
20260507151920 -17 6.4 11.3 0.00 0.00 0.00 1005.3
20260507150850 -17 3.2 9.7 0.00 0.00 0.00 1005.4
20260507145820 -17 3.2 11.3 0.00 0.00 0.00 1005.5
20260507144749 -17 3.2 14.5 0.00 0.00 0.00 1005.5
20260507143718 -17 6.4 12.9 0.00 0.00 0.00 1005.4
20260507142648 -17 3.2 9.7 0.00 0.00 0.00 1005.5
20260507141617 -17 3.2 14.5 0.00 0.00 0.00 1005.6
20260507140547 -17 4.8 14.5 0.00 0.00 0.00 1005.5
20260507135517 -17 6.4 12.9 0.00 0.00 0.00 1005.6
20260507134445 -17 6.4 11.3 0.00 0.00 0.00 1005.7
20260507133414 -17 6.4 12.9 0.00 0.00 0.00 1005.8
20260507132342 -17 11.3 16.1 0.00 0.00 0.00 1006.0
20260507131312 -17 6.4 12.9 0.00 0.00 0.00 1006.1
20260507130241 -17 1.6 9.7 0.00 0.00 0.00 1006.0
20260507125210 -17 6.4 11.3 0.00 0.00 0.00 1006.0
20260507124139 -17 6.4 11.3 0.00 0.00 0.00 1005.9
20260507123109 -17 3.2 11.3 0.00 0.00 0.00 1005.8
20260507122041 -17 6.4 9.7 0.00 0.00 0.00 1005.7
20260507121011 -17 6.4 11.3 0.00 0.00 0.00 1005.6
20260507115941 -17 6.4 9.7 0.00 0.00 0.00 1005.5
20260507114911 -17 3.2 8.0 0.00 0.00 0.00 1005.6
20260507113839 -17 1.6 12.9 0.00 0.00 0.00 1005.6
20260507112809 -17 3.2 9.7 0.00 0.00 0.00 1005.6
20260507111739 -17 4.8 9.7 0.00 0.00 0.00 1005.9
20260507110709 -17 3.2 11.3 0.00 0.00 0.00 1006.0
20260507105637 -17 1.6 6.4 0.00 0.00 0.00 1005.9
20260507104605 -17 1.6 8.0 0.00 0.00 0.00 1006.0
20260507103529 -17 6.4 9.7 0.00 0.00 0.00 1005.9
20260507102452 -17 1.6 6.4 0.00 0.00 0.00 1005.8
20260507101421 -17 1.6 6.4 0.00 0.00 0.00 1005.9
20260507100351 -17 1.6 6.4 0.00 0.00 0.00 1005.8
20260507095319 -17 3.2 9.7 0.00 0.00 0.00 1005.9
20260507094246 -17 8.0 12.9 0.00 0.00 0.00 1005.8
20260507093216 -17 3.2 8.0 0.00 0.00 0.00 1005.8
20260507092147 -17 4.8 16.1 0.00 0.00 0.00 1005.8
20260507091117 -17 3.2 9.7 0.00 0.00 0.00 1005.6
20260507090047 -17 6.4 14.5 0.00 0.00 0.00 1005.4
20260507085018 -17 6.4 9.7 0.00 0.00 0.00 1005.3
20260507083947 -17 0.0 9.7 0.00 0.00 0.00 1005.1
20260507082916 -17 3.2 12.9 0.00 0.00 0.00 1005.0
20260507081847 -17 6.4 14.5 0.00 0.00 0.00 1005.0
20260507080818 -17 4.8 12.9 0.00 0.00 0.00 1004.9
20260507075748 -17 4.8 9.7 0.00 0.00 0.00 1004.9
20260507074718 -17 0.0 4.8 0.00 0.00 0.00 1005.0
20260507073649 -17 4.8 8.0 0.00 0.00 0.00 1004.9
20260507072619 -17 3.2 4.8 0.00 0.00 0.00 1004.9
20260507071550 -17 0.0 1.6 0.00 0.00 0.00 1004.9
20260507070521 -17 0.0 0.0 0.00 0.00 0.00 1004.7
20260507065040 -17 0.0 0.0 0.00 0.00 0.00 1004.6
20260507064011 -17 0.0 1.6 0.00 0.00 0.00 1004.6
20260507062942 -17 0.0 1.6 0.00 0.00 0.00 1004.5
20260507061913 -17 0.0 0.0 0.00 0.00 0.00 1004.4
20260507060639 -17 0.0 0.0 0.00 0.00 0.00 1004.2
20260507055400 -17 0.0 0.0 0.00 0.00 0.00 1004.1
20260507054332 -17 0.0 0.0 0.00 0.00 0.00 1004.0
20260507052337 -17 0.0 0.0 0.00 0.00 0.00 1004.0
20260507051309 -17 0.0 0.0 0.00 0.00 0.00 1003.9
20260507050240 -17 0.0 0.0 0.00 0.00 0.00 1003.7
20260507044902 -17 0.0 0.0 0.00 0.00 0.00 1003.6
20260507043628 -17 0.0 0.0 0.00 0.00 0.00 1003.4
20260507042559 -17 0.0 0.0 0.00 0.00 0.00 1003.5
20260507041528 -17 0.0 0.0 0.00 0.00 0.00 1003.5
20260507040500 -17 0.0 0.0 0.00 0.00 0.00 1003.5
20260507035430 -17 0.0 1.6 0.00 0.00 0.00 1003.5
20260507034400 -17 0.0 0.0 0.00 0.00 0.00 1003.3
20260507033332 -17 0.0 0.0 0.00 0.00 0.00 1003.3
20260507032305 -17 0.0 0.0 0.00 0.00 0.00 1003.1
20260507031232 -17 0.0 1.6 0.00 0.00 0.00 1003.1
20260507030203 -17 0.0 0.0 0.00 0.00 0.00 1003.3
20260507024928 -17 0.0 0.0 0.00 0.00 0.00 1003.1
20260507023858 -17 0.0 0.0 0.00 0.00 0.00 1003.1
20260507022515 -17 0.0 0.0 0.00 0.00 0.00 1003.0
20260507021138 -17 0.0 1.6 0.00 0.00 0.00 1003.0
20260507020109 -17 0.0 0.0 0.00 0.00 0.00 1002.8